Погода в Шаховском

Россия / Тульская область     53°33′52″N   38°37′57″E
темп.,
°C
ветер,
м/с
пор.,
м/с
влажн.,
%
обл.,
%
осадки,
мм/ч
давл.,
гПа
погр.,
м
13 апреля, вт
вт1300:00+11юв41377100 0.0 1026236
03:00+9юв41276100 0.0 1026191
06:00+8юв4127869 0.0 1026175
09:00+13ююв5115685 0.0 1026315
12:00+18юв694015 0.0 1025872
15:00+20юв710295 0.0 10241990
18:00+18юв611350 0.0 1023331
21:00+14юв615475 0.0 1023330
14 апреля, ср
ср1400:00+12юв5145660 0.0 1023283
03:00+9юв41166100 0.0 1023184
06:00+8юв4970100 0.0 1022149
09:00+12юв595797 0.0 1021282
12:00+17юв6839100 0.0 1020797
15:00+19юв68305 0.0 10181581
18:00+17юв4836100 0.0 1017248
21:00+14юв494757 0.0 1018168
15 апреля, чт
чт1500:00+11юв385889 0.0 1017139
03:00+9юв346481 0.0 101742
06:00+9вюв336699 0.0 101743
09:00+13вюв3554100 0.0 1016251
12:00+16вюв4543100 0.0 1016768
15:00+17в4442100 0.0 10151172
18:00+16св3651100 0.0 1014199
21:00
16 апреля, пт
пт1600:00+12в2370100 0.0 101430
03:00+10в3482100 0.1 101457
06:00+9всв3784100 0.2 1014127
09:00+12в5768100 0.2 1015354
12:00+17в6751100 0.0 1015958
15:00+19в5742100 0.0 10141818
18:00+16всв61154100 0.2 1014413
21:00+14всв71370100 2.8 1017619
17 апреля, сб
сб1700:00+10св6118799 0.4 1018508
03:00+9св7128999 0.4 1018550
06:00+7всв61289100 0.0 1019534
09:00+9всв7118098 0.0 1020675
12:00+12всв8106775 0.0 1021920
15:00+14всв9105441 0.0 10211323
18:00+12св912505 0.0 10221199
21:00+9всв815524 0.0 1024636